Powrót do katalogu

SL-19 DEB

AktywnyLEO
NORAD 23494·DEBRIS·🇷🇺 Russia

Wystrzelony Dec 26, 1994 z Baikonur Cosmodrome

Loading…

Następne Przeloty (najbliższe 24 godziny)

TLE

ŚwieżeSource: Space-Track

Epoka: Sep 14, 2026, 07:30 UTC

1 23494U 94085S   26257.31304569  .00003556  00000-0  62996-1 0  9993
2 23494  64.9691 219.1245 0132875  15.4655 135.6846 11.69621484594468

Śledź SL-19 DEB w czasie rzeczywistym z AllMySat

Download on the App Store